Weather History for Glencoe, MN

Change the Weather History Date:

Tuesday, July 30, 2013

  Actual Average (KHCD) Record (KHCD)
Temperature  
Mean Temperature 66 °F -  
Max Temperature 71 °F 81 °F 96 °F (1983)
Min Temperature 60 °F 59 °F 44 °F (1971)
Cooling Degree Days 1    
Growing Degree Days 16 (Base 50)    
Moisture  
Dew Point 60 °F    
Average Humidity 80    
Maximum Humidity 88    
Minimum Humidity 70    
Precipitation  
Precipitation 0.03 in - - ()
Sea Level Pressure  
Sea Level Pressure 30.08 in    
Wind  
Wind Speed 1 mph (SSE)    
Max Wind Speed 6 mph    
Max Gust Speed -    
Visibility 9 miles    
Events Rain    
Averages and records for this station are not official NWS values.
T = Trace of Precipitation, MM = Missing Value Source: NWS Daily Summary

Daily Weather History Graph

Daily Weather History Graph

Search for Another Location

Airport:

Trip Planner

Search our weather history database for the weather conditions in past years. The results will help you decide how hot, cold, wet, or windy it might be!

Date:

Astronomy

Jul. 30, 2013 Rise Set
Actual Time 6:00 AM CDT 8:44 PM CDT
Civil Twilight 5:26 AM CDT 9:18 PM CDT
Nautical Twilight 4:43 AM CDT 10:00 PM CDT
Astronomical Twilight 3:54 AM CDT 10:49 PM CDT
Moon 12:21 AM CDT (7/30) 3:04 PM CDT (7/30)
Length of Visible Light 15h 51m
Length of Day
14h 43m
Last Quarter, 41% of the Moon is Illuminated
Jul 30
Last Quarter
Aug 6
New
Aug 14
First Quarter
Aug 20
Full
Aug 28
Last Quarter

Hourly Weather History & Observations

Time (CDT) Temp. Dew Point Humidity Pressure Visibility Wind Dir Wind Speed Gust Speed Precip Events Conditions
12:14 AM 66.2 °F 58.8 °F 77% 30.09 in 10.0 mi Calm Calm - N/A Rain Rain
12:34 AM 64.4 °F 58.5 °F 81% 30.08 in 10.0 mi Calm Calm - N/A   Overcast
12:54 AM 64.6 °F 58.3 °F 80% 30.08 in 10.0 mi Calm Calm - N/A   Overcast
1:14 AM 65.1 °F 59.0 °F 81% 30.07 in 10.0 mi Calm Calm - N/A   Overcast
1:34 AM 64.4 °F 59.0 °F 83% 30.07 in 10.0 mi Calm Calm - N/A   Overcast
1:55 AM 64.0 °F 59.0 °F 84% 30.07 in 10.0 mi Calm Calm - N/A   Overcast
2:14 AM 63.9 °F 59.0 °F 84% 30.07 in 10.0 mi Calm Calm - N/A   Overcast
2:34 AM 64.9 °F 58.5 °F 79% 30.07 in 10.0 mi Calm Calm - N/A   Overcast
2:55 AM 64.9 °F 58.3 °F 79% 30.07 in 10.0 mi Calm Calm - N/A   Overcast
3:14 AM 65.1 °F 59.0 °F 81% 30.07 in 10.0 mi Calm Calm - N/A   Overcast
3:34 AM 65.3 °F 58.1 °F 77% 30.07 in 10.0 mi Calm Calm - N/A Rain Light Rain
3:54 AM 64.9 °F 58.6 °F 80% 30.08 in 10.0 mi Calm Calm - N/A   Overcast
4:14 AM 64.4 °F 58.5 °F 81% 30.08 in 10.0 mi Calm Calm - N/A   Overcast
4:34 AM 64.9 °F 57.9 °F 78% 30.09 in 10.0 mi Calm Calm - N/A   Overcast
4:54 AM 64.8 °F 57.4 °F 77% 30.08 in 7.0 mi South 3.5 mph - N/A   Overcast
5:14 AM 64.0 °F 58.1 °F 81% 30.08 in 5.0 mi Calm Calm - N/A   Drizzle
5:34 AM 63.9 °F 58.8 °F 84% 30.09 in 10.0 mi Calm Calm - N/A   Overcast
5:55 AM 63.0 °F 58.6 °F 86% 30.09 in 10.0 mi ENE 3.5 mph - 0.01 in   Overcast
6:14 AM 62.6 °F 58.5 °F 86% 30.09 in 7.0 mi Calm Calm - N/A   Drizzle
6:34 AM 62.8 °F 58.8 °F 87% 30.09 in 4.0 mi Calm Calm - N/A   Drizzle
6:54 AM 62.8 °F 59.0 °F 87% 30.10 in 4.0 mi Calm Calm - N/A   Light Drizzle
7:14 AM 63.1 °F 59.5 °F 88% 30.10 in 4.0 mi ESE 4.6 mph - N/A   Drizzle
7:34 AM 63.0 °F 59.4 °F 88% 30.10 in 4.0 mi ESE 4.6 mph - N/A   Drizzle
7:54 AM 63.0 °F 59.0 °F 87% 30.10 in 4.0 mi ESE 5.8 mph - 0.01 in   Overcast
8:14 AM 63.0 °F 59.0 °F 87% 30.10 in 5.0 mi ESE 3.5 mph - N/A   Overcast
8:34 AM 63.3 °F 59.5 °F 87% 30.10 in 2.0 mi ESE 3.5 mph - N/A Rain Rain
8:54 AM 63.7 °F 60.1 °F 88% 30.10 in 3.0 mi SE 4.6 mph - N/A Rain Rain
9:14 AM 64.0 °F 60.3 °F 87% 30.09 in 10.0 mi SSE 4.6 mph - N/A   Overcast
9:34 AM 64.8 °F 60.4 °F 86% 30.09 in 10.0 mi SE 3.5 mph - N/A   Overcast
9:54 AM 65.3 °F 60.3 °F 84% 30.09 in 10.0 mi South 3.5 mph - N/A   Overcast
10:14 AM 65.3 °F 60.1 °F 83% 30.09 in 10.0 mi Calm Calm - N/A   Overcast
10:34 AM 65.8 °F 60.1 °F 82% 30.09 in 10.0 mi Calm Calm - N/A   Overcast
10:54 AM 66.2 °F 60.3 °F 81% 30.09 in 10.0 mi Calm Calm - 0.01 in   Overcast
11:14 AM 66.6 °F 59.5 °F 78% 30.09 in 10.0 mi Calm Calm - N/A   Overcast
11:34 AM 66.7 °F 59.4 °F 77% 30.09 in 10.0 mi Calm Calm - N/A   Overcast
11:54 AM 67.5 °F 60.1 °F 77% 30.09 in 10.0 mi Calm Calm - N/A   Overcast
12:14 PM 68.2 °F 59.9 °F 75% 30.09 in 10.0 mi Calm Calm - N/A   Overcast
12:34 PM 69.3 °F 60.1 °F 72% 30.09 in 10.0 mi Calm Calm - N/A   Overcast
12:54 PM 69.8 °F 60.6 °F 73% 30.09 in 10.0 mi Calm Calm - N/A   Overcast
1:14 PM 70.9 °F 60.6 °F 70% 30.09 in 10.0 mi South 4.6 mph - N/A   Overcast
1:34 PM 69.8 °F 60.4 °F 72% 30.09 in 10.0 mi WNW 3.5 mph - N/A   Overcast
1:54 PM 69.6 °F 60.4 °F 73% 30.09 in 10.0 mi Calm Calm - N/A   Overcast
2:14 PM 69.8 °F 60.4 °F 72% 30.08 in 10.0 mi Calm Calm - N/A   Overcast
2:34 PM 70.2 °F 60.4 °F 71% 30.08 in 10.0 mi Calm Calm - N/A   Overcast
2:54 PM 70.9 °F 60.8 °F 70% 30.08 in 10.0 mi West 3.5 mph - N/A   Overcast
3:14 PM 70.3 °F 61.7 °F 74% 30.08 in 10.0 mi WNW 4.6 mph - N/A   Overcast
3:35 PM 70.2 °F 61.3 °F 74% 30.08 in 10.0 mi NNW 3.5 mph - N/A   Overcast
3:54 PM 70.2 °F 61.0 °F 73% 30.08 in 10.0 mi Calm Calm - N/A   Overcast
4:14 PM 70.3 °F 61.0 °F 72% 30.08 in 10.0 mi Calm Calm - N/A   Overcast
4:34 PM 70.9 °F 61.0 °F 71% 30.08 in 10.0 mi Calm Calm - N/A   Overcast
4:54 PM 71.2 °F 61.5 °F 71% 30.08 in 10.0 mi Calm Calm - N/A   Overcast
5:14 PM 70.7 °F 61.2 °F 72% 30.08 in 10.0 mi Calm Calm - N/A   Overcast
5:34 PM 70.7 °F 61.7 °F 73% 30.08 in 10.0 mi NW 3.5 mph - N/A   Overcast
5:54 PM 70.7 °F 61.5 °F 73% 30.08 in 10.0 mi Calm Calm - N/A   Overcast
6:14 PM 70.2 °F 61.3 °F 74% 30.08 in 10.0 mi NW 3.5 mph - N/A   Overcast
6:34 PM 70.0 °F 61.7 °F 75% 30.08 in 10.0 mi NW 3.5 mph - N/A   Overcast
6:54 PM 70.0 °F 61.3 °F 74% 30.08 in 10.0 mi NW 5.8 mph - N/A   Overcast
7:13 PM 69.8 °F 61.3 °F 74% 30.09 in 10.0 mi NW 4.6 mph - N/A   Overcast
7:34 PM 69.8 °F 61.3 °F 74% 30.09 in 10.0 mi Calm Calm - N/A   Overcast
7:54 PM 69.3 °F 62.1 °F 78% 30.08 in 10.0 mi Calm Calm - N/A   Overcast
8:14 PM 68.7 °F 62.1 °F 79% 30.08 in 10.0 mi Calm Calm - N/A   Overcast
8:35 PM 69.1 °F 61.9 °F 78% 30.08 in 10.0 mi Calm Calm - N/A   Overcast
8:54 PM 67.8 °F 61.9 °F 81% 30.07 in 10.0 mi ESE 3.5 mph - N/A   Mostly Cloudy
9:14 PM 67.1 °F 61.3 °F 82% 30.06 in 10.0 mi SSE 3.5 mph - N/A   Clear
9:34 PM 67.3 °F 61.5 °F 82% 30.04 in 10.0 mi SE 5.8 mph - N/A   Clear
9:54 PM 66.4 °F 61.2 °F 83% 30.07 in 10.0 mi Calm Calm - N/A   Clear
10:14 PM 64.9 °F 60.1 °F 84% 30.08 in 10.0 mi Calm Calm - N/A   Clear
10:34 PM 63.9 °F 59.9 °F 87% 30.09 in 10.0 mi Calm Calm - N/A   Clear
10:54 PM 64.0 °F 60.1 °F 87% 30.08 in 10.0 mi Calm Calm - N/A   Clear
11:14 PM 63.1 °F 59.4 °F 87% 30.08 in 7.0 mi Calm Calm - N/A   Clear
11:34 PM 61.7 °F 58.1 °F 88% 30.08 in 5.0 mi Calm Calm - N/A   Clear
11:54 PM 60.8 °F 57.2 °F 88% 30.08 in 5.0 mi Calm Calm - N/A   Clear